Regional Weather Roundup
Issued by NWS Binghamton, NY

Home | Current Version | Previous Version | Text Only | Print | Product List | Glossary On
Versions: 1 2 3 4 5 6 7 8 9 10 11 12 13 14 15 16 17 18 19 20 21 22 23 24 25 26 27 28 29 30 31 32 33 34 35 36 37 38 39 40 41 42 43 44 45 46 47 48 49 50
000
ASUS41 KBGM 301210
RWRBGM

REGIONAL WEATHER ROUNDUP
NATIONAL WEATHER SERVICE BINGHAMTON NY
800 AM EDT MON MAY 30 2016

Note: "fair" indicates few or no clouds below 12,000 feet with no
significant weather and/or obstructions to visibility.

* = Station(s) that does not report precipitation, such as rain,
snow, etc, also no thunder or fog.

NYZ009-015>018-022>025-036-037-044>046-055>057-062-301300
...Central New York...

CITY           SKY/WX    TMP DP  RH WIND       PRES   REMARKS
Binghamton     PTSUNNY   65  57  75 S7        30.02S
Cortland       FAIR      64  61  88 CALM      30.01S
Dansville      SUNNY     69  60  73 SE7       29.99R
Elmira         CLOUDY    64  62  93 SW6       30.00R FOG
Ithaca         MOSUNNY   68  61  78 S7        30.01R
Hamilton       CLOUDY    70  57  64 SE6       30.00S
Hornell        SUNNY     68  59  73 CALM      30.03S
Monticello     CLOUDY    61  59  94 CALM      30.06R
Penn Yan       SUNNY     68  60  75 S10       29.98S
Rome           PTSUNNY   69  65  86 SE3       29.97R
Sidney         MOSUNNY   70  66  88 CALM      30.01S
Syracuse       PTSUNNY   71  63  75 S9        29.94R
$$

PAZ038>040-043-044-047-048-072-301300
...Northeast Pennsylvania...

CITY           SKY/WX    TMP DP  RH WIND       PRES   REMARKS
Hazleton       PTSUNNY   63  63 100 CALM      30.08F
Scranton       CLOUDY    65  62  90 CALM      30.04R
$$
&&
KEY
WCI = Wind Chill Index
VSB = Visibility
HX  = Heat Index
$$



USA.gov is the U.S. government's official web portal to all federal, state and local government web resources and services.